Retour au catalogue

FLOCK 4H 1

ActifScienceSSO
NORAD 66704·PAYLOAD·🇺🇸 United States

Lancé Nov 28, 2025 depuis Vandenberg Space Force Base

Loading…

Prochains Passages (prochaines 24 heures)

TLE

FraisSource: Space-Track

Époque: Sep 14, 2026, 10:54 UTC

1 66704U 25276AQ  26257.45430230  .00005010  00000-0  22561-3 0  9993
2 66704  97.4094 329.7484 0002341  37.4657 322.6742 15.21518020 44006

Suivez FLOCK 4H 1 en temps réel avec AllMySat

Download on the App Store